Location: Piolenc
(44.1794°N, 4.7641°E)
Time: 04:20:06
(UTC+00:00)

Cosmos 972 Rocket - Pass Details

Date: 27 January 2021
Orbit: 713 x 1151 km, 75.8° (Epoch: 27 February)

Event Time Altitude Azimuth Distance (km) Brightness Sun altitude
Rises 05:12:39 0° 200° (SSW) 3,755 7.4 -19.9°
Reaches altitude 10° 05:15:20 10° 202° (SSW) 2,745 6.7 -19.5°
Maximum altitude 05:21:39 77° 289° (WNW) 936 4.2 -18.3°
Drops below altitude 10° 05:27:17 10° 15° (NNE) 2,458 6.7 -17.3°
Sets 05:29:36 0° 17° (NNE) 3,338 7.4 -16.9°
